Weather Roundup
Issued by NWS

Home | Current Version | Previous Version | Text Only | Print | Product List | Glossary On
Versions: 1 2 3 4 5 6 7 8 9 10 11 12 13 14 15 16 17 18 19 20 21 22 23 24 25 26 27 28 29 30 31 32 33 34 35 36 37 38 39 40 41 42 43 44 45 46 47 48 49 50
000
NZUS93 KARX 211310
HRRWXR

CURRENT HOURLY OBSERVATIONS ACROSS
MUCH OF THE UPPER MISSISSIPPI VALLEY
NATIONAL WEATHER SERVICE LA CROSSE WI
700 AM CST SUN DEC 21 2014


...SOUTHEAST MINNESOTA...


CITY           SKY/WX    TMP DP  RH WIND       PRES   REMARKS
ROCHESTER      FOG       32  32 100 S15       29.95F VSB 1/2 WCI  22
ROCHESTER/MAYO CLOUDY    33  32  99 SE9G20    29.95F WCI  25
WINONA         CLOUDY    34  32  93 SE7       30.02S FOG     WCI  28
AUSTIN         MIX PCPN  34  32  93 S8        29.93F VSB 1/2 WCI  27
ALBERT LEA     FOG       34  34 100 S15       29.89F VSB<1/4 WCI  24
DODGE CENTER   FOG       34  34 100 S21G26    29.91F VSB 1/2 WCI  22
PRESTON        FOG       32  32  99 S12G17    29.97F VSB 1/4 WCI  23
OWATONNA       CLOUDY    34  32  93 S12G17    29.91F FOG     WCI  25
FARIBAULT      CLOUDY    34  34 100 S8        29.91F FOG     WCI  27
$$

...ELSEWHERE IN MINNESOTA...


CITY           SKY/WX    TMP DP  RH WIND       PRES   REMARKS
MINNEAPOLIS    CLOUDY    33  31  92 SE14      29.91F FOG     WCI  23
INTNL FALLS    CLOUDY    29  26  89 VRB5      29.83S FOG     WCI  24
DULUTH         FRZ DRZL  30  27  88 SE7       29.90F WCI  23
RED WING       CLOUDY    34  30  86 SE8       29.95F FOG     WCI  27
REDWOOD FALLS  FOG       32  31  96 S7        29.85S VSB 3/4 WCI  26
MANKATO        CLOUDY    34  30  86 S12       29.88F VSB 3/4 WCI  25
WORTHINGTON    CLOUDY    32  30  93 S10       29.81F VSB 3/4 WCI  24
FAIRMONT       CLOUDY    34  30  86 S13       29.86S VSB 1/2 WCI  25
$$

...SOUTHWEST WISCONSIN...


CITY           SKY/WX    TMP DP  RH WIND       PRES   REMARKS
LA CROSSE      CLOUDY    35  31  85 SE12      30.03F FOG     WCI  27
PRAIRIE DU CHI CLOUDY    34  32  93 SE5       30.06S FOG     WCI  30
BOSCOBEL       CLOUDY    35  32  88 SW6       30.08F FOG     WCI  30
LONE ROCK      CLOUDY    36  31  82 SE13      30.09F HAZE    WCI  27
PLATTEVILLE    CLOUDY    33  32  98 SE14      30.09S WCI  23
FORT MC COY    CLOUDY    32  31  95 SE7       30.05S FOG     WCI  26
CAMP DOUGLAS   CLOUDY    31  31 100 SE8       30.05F FOG     WCI  23
VIROQUA        CLOUDY    31  31 100 SE9       30.03S VSB 1/4 WCI  23
WIS DELLS      CLOUDY    31  30  96 SE8       30.08F FOG     WCI  24
$$

...ELSEWHERE IN WISCONSIN...


CITY           SKY/WX    TMP DP  RH WIND       PRES   REMARKS
MILWAUKEE      CLOUDY    32  26  78 S8        30.18F WCI  25
MADISON        CLOUDY    32  30  92 S13       30.12F FOG     WCI  22
GREEN BAY      CLOUDY    31  27  85 S7        30.14F FOG     WCI  24
EAU CLAIRE     CLOUDY    31  28  89 SE10      29.98F WCI  22
BLACK RVR FLS  CLOUDY    32  30  92 SE3       30.03F FOG
MEDFORD        CLOUDY    28  27  95 SE7       30.01F FOG     WCI  21
WAUSAU         CLOUDY    29  27  92 SE9       30.05F FOG     WCI  20
WIS RAPIDS     CLOUDY    30  26  85 S9        30.08F FOG     WCI  22
MARSHFIELD     CLOUDY    30  27  88 S12       30.04F FOG     WCI  20
RICE LAKE      CLOUDY    31  29  94 SE10      29.98F FOG     WCI  22
$$

...NORTHEAST IOWA...


CITY           SKY/WX    TMP DP  RH WIND       PRES   REMARKS
DECORAH        FOG       32  32 100 S12       29.99F VSB 1/4 WCI  23
MASON CITY     FOG       34  34 100 S13       29.94F VSB 1/2 WCI  25
CHARLES CITY   FOG       34  34 100 S16       29.97F VSB 1/4 WCI  23
OELWEIN        CLOUDY    36  36 100 S15       30.02F FOG     WCI  26
$$

...ELSEWHERE IN IOWA...


CITY           SKY/WX    TMP DP  RH WIND       PRES   REMARKS
DES MOINES     CLOUDY    38  34  85 S17G23    29.99F WCI  28
IOWA CITY      CLOUDY    37  35  92 S9        30.10S WCI  30
FORT DODGE     CLOUDY    36  32  87 S14G20    29.92S WCI  27
$$

...NORTHERN ILLINOIS...


CITY           SKY/WX    TMP DP  RH WIND       PRES   REMARKS
CHICAGO-OHARE  CLOUDY    32  27  81 S9        30.21R WCI  24
CHICAGO-MIDWAY CLOUDY    34  27  75 S9        30.23R WCI  27
MOLINE         CLOUDY    36  33  89 S5        30.12F WCI  32
ROCKFORD       CLOUDY    33  29  85 S12       30.18S WCI  24
PEORIA         CLOUDY    36  30  79 S6        30.19S WCI  31
$$

NOTE: "FAIR" INDICATES FEW OR NO CLOUDS BELOW 12,000 FEET WITH NO
SIGNIFICANT WEATHER AND/OR OBSTRUCTIONS TO VISIBILITY. WIND
SPEEDS ARE IN MILES-PER-HOUR.



USA.gov is the U.S. government's official web portal to all federal, state and local government web resources and services.